Nice, France

10:33 AM CEST on June 25, 2017 (GMT +0200)
Nice-Cote d'Azur

Weather History for LFMN - December, 2013

Change the Weather History Date:

Wednesday, December 18, 2013

  Actual Average Record
Temperature  
Mean Temperature 50 °F -  
Max Temperature 57 °F 54 °F 63 °F (2012)
Min Temperature 44 °F 40 °F 33 °F (2010)
Degree Days  
Heating Degree Days 14    
Moisture  
Dew Point 30 °F    
Average Humidity 46    
Maximum Humidity 67    
Minimum Humidity 23    
Precipitation  
Precipitation 0.00 in 0.11 in - ()
Sea Level Pressure  
Sea Level Pressure 30.31 in    
Wind  
Wind Speed 10 mph ()    
Max Wind Speed 15 mph    
Max Gust Speed -    
Visibility 8.3 miles    
Events      
Averages and records for this station are not official NWS values.
T = Trace of Precipitation, MM = Missing Value Source: Averaged Metar Reports

Daily Weather History Graph

Daily Weather History Graph

Search for Another Location

Airport or City:

Trip Planner

Search our weather history database for the weather conditions in past years. The results will help you decide how hot, cold, wet, or windy it might be!

Date:

Astronomy

Dec. 18, 2013 Rise Set
Actual Time 7:59 AM CET 4:55 PM CET
Civil Twilight 7:26 AM CET 5:28 PM CET
Nautical Twilight 6:50 AM CET 6:05 PM CET
Astronomical Twilight 6:15 AM CET 6:40 PM CET
Moon 6:16 PM CET (12/18) 8:26 AM CET (12/18)
Length of Visible Light 10h 01m
Length of Day
8h 56m
Full, 99% of the Moon is Illuminated
Dec 18
Full
Dec 25
Last Quarter
Jan 1
New
Jan 8
First Quarter
Jan 16
Full

Hourly Weather History & Observations

Time (CET) Temp. Windchill Dew Point Humidity Pressure Visibility Wind Dir Wind Speed Gust Speed Precip Events Conditions
12:00 AM 46 °F - 26 °F 32% 30.41 in 16 mi NNW 13.8 mph - -   Clear
12:00 AM 46.4 °F 40.1 °F 24.8 °F 43% 30.39 in - NNW 15.0 mph - N/A   Clear
12:30 AM 46.4 °F 40.7 °F 24.8 °F 43% 30.39 in - NW 12.7 mph - N/A   Clear
1:00 AM 46 °F - 25 °F 31% 30.39 in 16 mi NNW 12.7 mph - -   Clear
1:00 AM 46.4 °F 40.7 °F 24.8 °F 43% 30.39 in - NNW 12.7 mph - N/A   Clear
1:30 AM 46.4 °F 40.4 °F 24.8 °F 43% 30.36 in - NNW 13.8 mph - N/A   Clear
2:00 AM 45 °F - 25 °F 32% 30.38 in 16 mi NNW 10.4 mph - -   Clear
2:00 AM 44.6 °F 38.8 °F 24.8 °F 46% 30.36 in - NNW 11.5 mph - N/A   Clear
2:30 AM 44.6 °F 39.7 °F 24.8 °F 46% 30.36 in - NNW 9.2 mph - N/A   Clear
3:00 AM 45 °F - 25 °F 32% 30.37 in 16 mi NNW 11.5 mph - -   Clear
3:00 AM 44.6 °F 38.4 °F 24.8 °F 46% 30.36 in - NNW 12.7 mph - N/A   Clear
3:30 AM 44.6 °F 38.1 °F 24.8 °F 46% 30.36 in - NNW 13.8 mph - N/A   Clear
4:00 AM 45 °F - 24 °F 31% 30.36 in 16 mi NNW 9.2 mph - -   Clear
4:00 AM 44.6 °F 39.7 °F 24.8 °F 46% 30.33 in - NNW 9.2 mph - N/A   Clear
4:30 AM 44.6 °F 38.8 °F 24.8 °F 46% 30.33 in - NNW 11.5 mph - N/A   Clear
5:00 AM 45 °F - 25 °F 32% 30.35 in 16 mi NNW 13.8 mph - -   Scattered Clouds
5:00 AM 44.6 °F 38.1 °F 24.8 °F 46% 30.33 in - NNW 13.8 mph - N/A   Clear
5:30 AM 44.6 °F 38.1 °F 24.8 °F 46% 30.33 in - NNW 13.8 mph - N/A   Clear
6:00 AM 45 °F - 25 °F 32% 30.35 in 16 mi NNW 15.0 mph - -   Mostly Cloudy
6:00 AM 44.6 °F 37.8 °F 24.8 °F 46% 30.33 in - NNW 15.0 mph - N/A   Clear
6:30 AM 44.6 °F 38.1 °F 24.8 °F 46% 30.33 in - NNW 13.8 mph - N/A   Clear
7:00 AM 44 °F - 25 °F 34% 30.34 in 22 mi NNW 15.0 mph - -   Partly Cloudy
7:00 AM 44.6 °F 37.8 °F 24.8 °F 46% 30.33 in - NNW 15.0 mph - N/A   Clear
7:30 AM 44.6 °F 37.8 °F 24.8 °F 46% 30.33 in 6.2 mi NNW 15.0 mph - N/A   Mostly Cloudy
8:00 AM 44 °F - 25 °F 34% 30.34 in 31 mi NNW 12.7 mph - -   Scattered Clouds
8:00 AM 44.6 °F 38.4 °F 24.8 °F 46% 30.33 in 6.2 mi NNW 12.7 mph - N/A   Mostly Cloudy
8:30 AM 44.6 °F 38.1 °F 24.8 °F 46% 30.33 in 6.2 mi NNW 13.8 mph - N/A   Mostly Cloudy
9:00 AM 44.6 °F 38.8 °F 24.8 °F 46% 30.33 in 6.2 mi NNW 11.5 mph - N/A   Mostly Cloudy
9:30 AM 46.4 °F 40.7 °F 24.8 °F 43% 30.33 in 6.2 mi NNW 12.7 mph - N/A   Mostly Cloudy
10:00 AM 47 °F - 26 °F 31% 30.36 in 31 mi NNW 11.5 mph - -   Scattered Clouds
10:00 AM 46.4 °F 41.1 °F 26.6 °F 46% 30.36 in 6.2 mi NNW 11.5 mph - N/A   Mostly Cloudy
10:30 AM 50.0 °F - 26.6 °F 40% 30.36 in 6.2 mi NNW 11.5 mph - N/A   Mostly Cloudy
11:00 AM 49 °F - 27 °F 29% 30.36 in 31 mi NNW 11.5 mph - -   Scattered Clouds
11:00 AM 50.0 °F - 26.6 °F 40% 30.33 in 6.2 mi NNW 11.5 mph - N/A   Mostly Cloudy
11:30 AM 50.0 °F - 26.6 °F 40% 30.33 in 6.2 mi NNW 11.5 mph - N/A   Mostly Cloudy
12:00 PM 53 °F - 28 °F 25% 30.34 in 31 mi NW 8.1 mph - -   Scattered Clouds
12:09 PM 53.6 °F - 28.4 °F 38% 30.33 in 6.2 mi NW 8.1 mph - N/A   Mostly Cloudy
12:30 PM 55.4 °F - 28.4 °F 36% 30.30 in 6.2 mi NW 8.1 mph - N/A   Mostly Cloudy
1:00 PM 56 °F - 29 °F 23% 30.31 in 31 mi NNW 8.1 mph - -   Scattered Clouds
1:00 PM 55.4 °F - 28.4 °F 36% 30.30 in 6.2 mi NNW 8.1 mph - N/A   Mostly Cloudy
1:30 PM 55.4 °F - 30.2 °F 38% 30.27 in 6.2 mi NW 4.6 mph - N/A   Mostly Cloudy
2:00 PM 57 °F - 38 °F 37% 30.29 in 31 mi South 3.5 mph - -   Scattered Clouds
2:00 PM 57.2 °F - 37.4 °F 48% 30.27 in 6.2 mi Variable 2.3 mph - N/A   Mostly Cloudy
2:30 PM 55.4 °F - 42.8 °F 63% 30.27 in 6.2 mi SSW 3.5 mph - N/A   Mostly Cloudy
3:00 PM 57 °F - 45 °F 54% 30.27 in 31 mi SSW 2.3 mph - -   Scattered Clouds
3:00 PM 57.2 °F - 44.6 °F 63% 30.27 in 6.2 mi Variable 2.3 mph - N/A   Mostly Cloudy
3:30 PM 57.2 °F - 39.2 °F 51% 30.24 in 6.2 mi Variable 1.2 mph - N/A   Mostly Cloudy
4:00 PM 56 °F - 46 °F 60% 30.27 in 31 mi WNW 2.3 mph - -   Scattered Clouds
4:00 PM 57.2 °F - 46.4 °F 67% 30.24 in 6.2 mi Variable 2.3 mph - N/A   Scattered Clouds
4:30 PM 55.4 °F - 35.6 °F 47% 30.24 in 6.2 mi NW 4.6 mph - N/A   Scattered Clouds
5:00 PM 53.6 °F - 35.6 °F 51% 30.24 in 6.2 mi NNW 3.5 mph - N/A   Mostly Cloudy
5:30 PM 51.8 °F - 35.6 °F 54% 30.24 in 6.2 mi NNW 8.1 mph - N/A   Scattered Clouds
6:00 PM 49 °F - 34 °F 44% 30.27 in 9 mi NW 10.4 mph - -   Partly Cloudy
6:00 PM 50.0 °F - 33.8 °F 54% 30.24 in 6.2 mi NW 9.2 mph - N/A   Scattered Clouds
6:30 PM 48.2 °F - 33.8 °F 58% 30.24 in 6.2 mi NW 10.4 mph - N/A   Partly Cloudy
7:00 PM 48 °F - 36 °F 52% 30.27 in 9 mi NW 10.4 mph - -   Partly Cloudy
7:00 PM 48.2 °F - 35.6 °F 62% 30.24 in 6.2 mi NW 10.4 mph - N/A   Partly Cloudy
7:30 PM 48.2 °F - 35.6 °F 62% 30.24 in 6.2 mi NNW 10.4 mph - N/A   Partly Cloudy
8:00 PM 48 °F - 36 °F 52% 30.26 in 11 mi NNW 8.1 mph - -   Scattered Clouds
8:00 PM 48.2 °F - 37.4 °F 66% 30.24 in 6.2 mi NNW 9.2 mph - N/A   Partly Cloudy
8:30 PM 48.2 °F - 35.6 °F 62% 30.24 in 6.2 mi NNW 11.5 mph - N/A   Partly Cloudy
9:00 PM 47 °F - 34 °F 48% 30.27 in 11 mi NNW 13.8 mph - -   Partly Cloudy
9:00 PM 46.4 °F 40.7 °F 33.8 °F 62% 30.24 in 6.2 mi NNW 12.7 mph - N/A   Scattered Clouds
9:30 PM 48.2 °F - 32.0 °F 54% 30.24 in 6.2 mi NNW 12.7 mph - N/A   Scattered Clouds
10:00 PM 47 °F - 32 °F 44% 30.26 in 12 mi NNW 13.8 mph - -   Partly Cloudy
10:00 PM 46.4 °F 40.4 °F 32.0 °F 57% 30.24 in 6.2 mi NNW 13.8 mph - N/A   Scattered Clouds
10:30 PM 46.4 °F 41.1 °F 32.0 °F 57% 30.24 in 6.2 mi NNW 11.5 mph - N/A   Scattered Clouds
11:00 PM 47 °F - 31 °F 42% 30.26 in 12 mi NNW 11.5 mph - -   Mostly Cloudy
11:00 PM 48.2 °F - 32.0 °F 54% 30.24 in 6.2 mi NNW 10.4 mph - N/A   Scattered Clouds
11:30 PM 48.2 °F - 30.2 °F 50% 30.24 in 6.2 mi NNW 12.7 mph - N/A   Mostly Cloudy